Simultaneous Nadir Overpasses (SNOs) Predictions

Prediction of SNOs between AQUA and NPP Satellite Orbit:

Table of predicted SNOs for the next 14.0 days since TLE Epoch: 1/19/2019
Index Date (AQUA) Time (AQUA) Lat,Lon (AQUA) SZA (AQUA ) Date (NPP) Time (NPP) Lat,Lon (NPP) SZA (NPP ) Distance(km) Time Diff (sec)
1 01/19/2019 21:48:45 -75.90, -88.40 62.37 01/19/2019 21:48:05 -75.90, -88.38 62.34 0.54 40
2 01/19/2019 22:37:53 76.76, 82.08 116.64 01/19/2019 22:38:30 76.76, 82.04 116.62 1.03 37
3 01/22/2019 14:05:10 -76.10, 28.12 63.14 01/22/2019 14:04:54 -76.10, 28.06 63.11 1.69 16
4 01/22/2019 14:54:18 76.96,-161.34 115.88 01/22/2019 14:55:19 76.95,-161.43 115.85 2.43 61
5 01/25/2019 05:32:23 75.60, -25.16 116.85 01/25/2019 05:31:13 75.60, -25.10 116.90 1.76 70
6 01/25/2019 06:21:28 -76.69, 145.94 64.40 01/25/2019 06:21:35 -76.69, 146.02 64.42 2.27 7
7 01/27/2019 21:48:48 75.85, 91.45 115.95 01/27/2019 21:48:02 75.85, 91.47 115.98 0.52 46
8 01/27/2019 22:37:55 -76.84, -97.66 65.20 01/27/2019 22:38:26 -76.84, -97.64 65.23 0.59 31
9 01/30/2019 14:05:12 76.14,-151.78 114.95 01/30/2019 14:04:50 76.13,-151.79 114.97 0.47 22




NCC Satellite Simultaneous Nadir Overpasses (SNOs) Prediction Service
